Torna al catalogo

COSMOS 249 DEB

AttivoLEO
NORAD 18602·DEBRIS·🇷🇺 Russia

Lanciato Oct 20, 1968 da Baikonur Cosmodrome

Loading…

Prossimi Passaggi (prossime 24 ore)

TLE

AggiornatoSource: Space-Track

Epoca: Sep 13, 2026, 14:14 UTC

1 18602U 68091DG  26256.59326516  .00002345  00000-0  26507-2 0  9995
2 18602  62.2368 321.5006 0625377 274.7327 243.9092 13.09834572657082

Traccia COSMOS 249 DEB in tempo reale con AllMySat

Download on the App Store